weather.gov     
National Weather Service

Terminal Aerodrome Forecast
NWS Homepage
This page is being discontinued on March 12, 2014.
The same data is available at this site. Please update your bookmarks.
Thank you, and we apologize for the inconvenience.
Please send an email to SR-SRH.Webmaster@noaa.gov with any concerns.


Current Version
Previous Version:    01  02  03  04  05  06  07  08  09  10  11  12  13  14  15  16  17  18  19  20  21  22  23  24  25  26  27  28  29  30  
   31  32  33  34  
[Printable]
834
FTUS42 KMLB 252300
TAFTIX
TAF
KTIX 252331Z 2600/2624 21010KT 5SM RA BKN010 OVC040
      TEMPO 2600/2602 1SM RA BKN008 OVC020
     FM260500 19010KT P6SM VCSH BKN010
     FM261100 32016G24KT P6SM VCSH BKN025
      AMD NOT SKED 2602/2612=


U.S. Dept. of Commerce
NOAA National Weather Service
1325 East West Highway
Silver Spring, MD 20910
E-mail: w-nws.webmaster@noaa.gov
Page last modified: May 16, 2007
NATIONAL WEATHER SERVICE: for Safety, for Work, for Fun - FOR LIFE